Probability
3 1 0 0 0 0 0 0 0 0 0 0 0 0 0 0 0 0 0 0 0 0 0 1 1 1 0 0 1 2 2 1 1 2 1 0 0 0 0 0 0 0 0
3 2 0 0 0 0 0 0 0 0 0 0 0 0 0 0 0 0 0 0 0 0 0 0 1 2 1 0 1 2 2 1 1 2 1 0 0 0 0 0 0 0 0
3 2 1 0 0 0 0 0 0 0 0 0 0 0 0 0 0 0 0 0 0 0 0 1 1 3 3 1 0 1 1 1 1 2 1 0 0 0 0 0 0 0 0
3 2 1 0 0 0 0 0 0 0 0 0 0 0 0 0 0 0 0 0 0 0 0 1 2 3 4 3 1 1 1 2 3 3 2 1 0 0 0 0 0 0 0
1 1 1 0 0 0 0 0 0 0 0 0 0 0 0 0 0 0 0 0 0 0 0 1 1 1 3 3 3 3 2 3 4 4 3 2 0 0 0 0 0 0 0
0 0 0 0 0 0 0 0 0 0 0 0 0 0 0 0 0 0 0 0 0 0 0 0 0 0 1 2 3 3 3 3 5 5 3 1 0 0 0 0 0 0 0
0 0 0 0 0 0 0 0 0 0 0 0 0 0 1 1 0 0 0 0 0 0 0 0 0 0 0 2 3 3 3 3 4 4 1 0 0 0 0 0 0 0 0
0 0 0 0 0 0 0 0 0 0 0 0 0 0 1 2 1 0 0 0 0 0 0 0 0 0 0 2 3 3 3 3 4 3 1 0 0 0 0 0 0 0 0
0 0 0 0 0 0 0 0 0 0 0 0 0 0 1 1 1 0 0 0 0 0 0 0 0 0 0 1 2 2 3 3 3 3 2 1 0 1 1 0 0 0 0
0 0 0 0 0 0 0 0 0 0 0 0 0 0 0 0 0 0 0 0 0 0 0 0 0 0 0 0 1 1 1 2 3 3 3 1 1 2 2 1 0 0 0
0 0 0 0 0 0 0 0 0 0 0 0 0 0 0 0 0 0 0 0 0 0 0 0 0 0 0 0 1 1 1 1 3 3 4 3 3 3 3 2 1 0 0
0 0 0 0 0 0 0 0 0 0 0 0 0 0 0 0 0 0 0 0 0 0 0 0 0 0 0 0 1 1 0 1 2 4 4 5 4 4 3 2 1 0 0
0 0 0 0 0 0 0 0 0 0 0 0 0 0 0 0 0 0 0 0 0 0 0 0 0 0 0 0 0 0 0 1 2 3 4 4 4 3 2 1 0 0 0
0 0 0 0 0 0 0 0 0 0 0 0 0 0 0 0 0 0 0 0 0 0 0 0 0 0 0 0 0 0 0 0 1 2 3 2 2 2 1 0 0 0 0
0 0 0 0 0 0 0 0 0 0 0 0 0 0 0 0 0 0 0 0 0 0 0 0 0 0 0 0 0 0 0 0 1 1 1 1 1 1 0 0 0 0 0
0 0 0 0 0 0 0 0 0 0 0 0 0 0 0 0 0 0 0 0 0 0 0 0 0 0 0 0 0 0 0 0 0 0 0 0 0 0 0 0 0 0 0
0 0 0 0 0 0 0 0 0 0 0 0 0 0 0 0 0 0 0 0 0 0 0 0 0 0 0 0 0 0 0 0 0 0 0 0 0 0 0 0 0 0 0
1 2 2 2 1 0 0 0 0 0 0 0 0 0 0 0 0 0 0 0 0 0 0 0 0 0 0 0 0 0 0 0 0 0 0 0 0 0 0 0 0 0 0
2 2 3 3 2 1 0 0 0 0 0 0 0 0 0 0 0 0 0 0 0 0 0 0 0 0 0 0 0 0 0 0 0 0 0 0 0 0 0 0 0 0 0
1 1 3 3 2 1 0 0 0 0 0 0 0 0 0 0 0 0 0 0 0 0 0 0 0 0 0 0 0 0 0 0 0 0 0 0 0 0 0 0 0 0 0
0 1 2 2 2 1 0 0 0 0 0 0 0 0 0 0 0 0 0 0 0 0 0 0 0 0 0 0 0 0 0 0 0 0 0 0 0 0 0 0 0 0 0
0 0 1 1 1 0 0 0 0 0 0 0 0 0 0 0 0 0 0 0 0 0 0 0 0 0 0 0 0 0 0 0 0 0 0 0 0 0 0 0 0 0 0
0 0 0 0 0 0 0 0 0 0 0 0 0 0 0 0 0 0 0 0 0 0 0 0 0 0 0 0 0 0 0 0 0 0 0 0 0 0 0 0 0 0 0
0 0 0 0 0 0 0 0 0 0 0 0 0 0 0 0 0 0 0 0 0 0 0 0 0 0 0 0 0 0 0 0 0 0 0 0 0 0 0 0 0 0 0
0 0 0 0 0 0 0 0 0 0 0 0 0 0 0 0 0 0 0 0 0 0 0 0 0 0 0 0 0 0 0 0 0 0 0 0 0 0 0 0 0 0 0
0 0 0 0 0 0 0 0 0 0 0 0 0 0 0 0 0 0 0 0 0 0 0 0 0 0 0 0 0 0 0 0 0 0 0 0 0 0 0 0 0 0 0
Wind_Speed
1 1 1 1 1 1 1 1 1 2 1 1 1 1 1 0 1 0 1 1 1 3 4 4 5 5 6 6 7 7 7 7 7 7 6 7 7 6 7 7 7 8 8
1 1 1 1 0 0 1 0 1 1 1 0 0 0 1 0 0 0 0 1 1 1 2 3 4 5 6 6 6 7 6 6 7 7 6 6 6 6 6 6 6 6 7
1 1 2 1 1 0 1 1 1 1 1 1 0 0 1 1 1 0 0 0 0 0 1 3 3 4 5 6 6 7 6 6 6 6 6 6 6 6 6 5 5 5 5
1 1 2 1 1 1 1 1 1 1 0 1 1 1 1 1 1 1 1 0 0 0 1 2 2 3 4 5 6 6 6 5 5 5 5 5 5 5 5 5 4 4 4
1 1 1 2 2 1 1 1 0 0 0 1 1 1 1 1 1 1 1 1 1 1 1 1 2 2 3 3 5 5 5 5 5 4 5 5 4 4 4 4 3 3 3
1 1 1 1 2 2 1 1 1 0 1 0 1 1 1 2 1 2 2 1 1 1 1 1 2 1 2 2 3 4 5 5 5 5 5 4 3 3 2 2 2 2 3
1 1 1 1 2 2 2 2 1 1 0 0 0 1 1 2 2 2 2 2 2 2 2 2 2 2 2 2 3 4 4 5 5 5 5 4 3 3 2 2 2 2 2
1 2 1 1 2 2 2 2 2 1 0 1 1 0 1 2 2 2 2 3 3 2 2 2 2 2 2 2 2 3 4 5 5 5 6 5 4 4 3 3 2 2 2
2 2 2 2 2 3 3 3 3 2 2 2 1 2 2 2 2 2 2 3 3 2 2 3 3 3 3 2 2 3 3 4 6 6 6 6 6 5 4 4 3 3 3
3 2 3 3 3 3 4 4 4 2 4 3 2 1 2 2 2 2 2 2 3 3 3 3 3 3 4 3 3 4 4 5 6 8 7 7 7 6 6 5 5 4 3
3 3 3 4 3 3 4 5 4 3 3 4 3 2 1 1 2 2 3 2 2 3 3 4 3 3 4 4 3 4 5 6 7 8 8 8 7 7 6 5 5 4 4
3 4 4 4 4 3 4 5 6 5 5 4 3 3 2 3 3 2 3 3 3 3 3 3 4 4 4 4 5 5 6 7 7 7 7 7 6 6 6 5 5 4 4
3 4 4 5 4 4 4 5 5 6 6 6 5 4 3 3 2 2 2 3 3 2 2 3 4 4 4 4 4 6 6 7 6 7 7 6 5 4 5 5 6 5 5
5 5 5 6 6 5 5 5 5 6 6 7 7 6 4 4 3 3 3 3 2 3 3 4 2 3 3 3 4 6 5 7 6 6 6 5 5 4 4 4 4 5 5
5 5 5 6 6 6 6 6 5 6 6 7 7 7 5 4 4 3 3 4 4 4 4 4 3 3 2 3 4 5 5 6 6 6 6 5 5 4 4 4 3 3 4
5 5 5 6 6 6 6 6 6 6 7 7 6 7 6 5 4 4 4 4 4 4 5 3 3 3 3 3 5 5 5 6 7 7 6 6 6 5 5 4 4 4 4
5 5 5 5 6 6 6 6 7 7 8 8 7 7 8 6 5 5 4 4 4 4 5 4 3 3 3 4 3 3 4 4 5 7 7 7 7 6 6 5 4 4 4
5 5 5 5 5 5 5 6 7 7 8 8 7 7 7 5 6 5 5 6 5 5 5 5 4 3 4 4 4 4 3 3 4 6 8 8 7 7 7 6 5 5 4
4 4 4 5 6 5 5 6 6 7 8 8 8 8 7 6 6 5 5 5 5 5 4 5 4 3 3 3 3 3 3 3 3 4 6 7 8 7 7 7 7 6 6
4 5 5 5 5 5 6 6 6 6 7 7 7 7 7 7 8 7 6 6 5 5 5 5 4 4 3 3 3 4 3 3 3 2 4 4 6 7 8 8 7 7 7
5 5 5 5 4 4 5 6 6 6 6 7 7 6 6 7 8 7 6 6 6 6 5 5 5 4 4 4 5 4 4 2 3 3 2 3 3 3 4 6 7 8 8
5 5 5 5 5 5 6 8 7 6 5 6 7 6 6 6 7 8 8 8 8 7 7 6 6 7 6 5 4 4 3 3 3 3 3 3 3 3 3 4 6 8 9
5 5 5 5 5 6 8 8 8 5 4 5 5 5 5 4 5 5 6 6 7 8 8 7 7 7 6 6 6 5 5 4 4 3 2 3 3 4 3 4 7 8 8
4 4 5 5 5 6 8 8 7 5 4 4 5 5 5 4 4 5 5 5 5 5 6 5 6 6 6 5 7 6 5 3 1 2 2 3 3 3 3 3 6 7 8
4 4 4 4 4 5 7 8 7 4 4 4 5 4 4 4 5 6 5 5 5 4 5 6 6 6 6 6 5 4 4 4 3 3 2 2 2 2 2 3 4 6 7
4 4 4 4 4 4 7 7 7 4 4 4 4 4 6 5 5 6 5 5 6 5 3 3 3 4 3 3 5 5 5 5 3 2 3 3 2 1 2 2 2 3 4
Wind_Direction
141 132 126 107 66 59 66 51 44 22 19 44 60 93 87 52 5 4 357 27 64 123 137 138 136 133 128 125 124 116 108 110 115 114 109 106 101 109 111 107 103 100 96
162 158 156 149 114 86 77 74 63 37 359 14 63 125 154 190 303 334 16 16 45 89 148 156 152 144 136 132 128 123 117 112 112 114 114 111 109 106 112 111 110 106 103
180 177 170 179 198 161 96 75 49 43 30 358 298 227 198 203 199 239 267 73 357 349 191 167 153 149 142 142 138 134 130 124 119 119 114 112 110 112 111 114 116 113 110
304 184 184 193 200 170 150 149 121 40 5 340 295 268 243 223 218 216 224 185 164 267 217 154 152 150 142 142 145 148 145 140 134 133 127 118 114 117 121 112 122 123 117
320 242 208 199 189 175 171 178 136 106 262 309 289 290 265 229 234 219 211 198 194 174 186 178 154 155 151 152 154 157 157 152 149 147 143 136 127 125 126 123 110 124 128
315 281 255 204 185 178 180 174 183 233 205 241 303 306 282 249 232 221 219 204 206 205 196 185 177 175 168 176 172 170 167 166 164 156 152 152 146 142 139 143 143 120 131
277 282 277 242 193 189 194 182 176 177 191 45 9 325 307 261 232 223 219 206 212 213 200 193 184 185 191 198 201 191 186 185 182 175 173 173 167 162 161 161 156 152 138
257 263 251 244 228 199 190 185 168 174 217 200 160 177 295 291 256 233 216 207 212 204 207 207 193 194 193 191 221 214 207 203 196 193 188 189 196 199 196 200 191 177 170
244 254 248 222 238 210 200 200 188 181 198 235 214 176 182 232 270 262 230 215 206 203 212 209 203 202 201 195 207 221 222 224 216 213 206 204 208 211 214 214 209 201 195
240 243 249 228 226 229 208 208 200 202 188 211 237 238 228 197 206 265 262 230 213 211 213 216 215 212 206 200 212 222 225 229 227 223 219 216 218 220 220 218 216 214 206
244 245 244 232 222 232 221 208 207 208 198 209 214 217 244 268 223 222 248 248 250 230 221 215 213 216 212 205 206 220 225 226 227 226 225 224 223 223 224 224 222 224 220
246 247 249 234 224 228 232 218 208 210 213 213 220 210 204 207 211 221 236 244 251 250 240 223 212 214 210 204 212 219 222 221 226 227 222 220 222 220 219 220 218 215 213
251 248 251 243 233 231 236 232 216 214 215 215 218 221 221 226 215 222 232 243 264 277 257 239 219 212 212 204 209 214 219 215 218 223 218 213 215 219 221 221 222 217 215
248 247 245 245 239 237 238 233 228 221 218 220 227 225 227 228 218 218 216 215 249 270 258 247 231 209 212 208 214 206 215 216 212 215 216 211 210 212 211 215 224 226 221
256 245 243 249 240 235 236 234 231 228 222 222 227 228 228 230 223 223 223 212 207 236 247 241 230 218 217 211 212 206 207 214 209 209 210 209 208 206 205 207 213 226 230
262 252 246 252 246 236 236 233 236 232 225 226 227 228 229 228 223 220 222 226 223 223 243 241 245 249 231 234 222 213 209 208 211 211 211 208 206 202 205 208 211 220 230
259 256 249 253 249 238 236 234 236 236 231 230 230 231 232 230 225 221 220 221 226 222 242 258 255 253 228 225 228 220 205 201 208 212 212 208 205 204 202 202 207 216 225
261 258 252 254 253 242 236 237 239 238 233 230 230 232 234 232 232 227 223 225 226 222 224 243 243 235 233 220 221 214 209 209 208 211 213 209 209 211 207 205 205 210 220
268 267 257 253 250 247 243 240 239 238 236 229 229 231 229 227 233 232 229 228 229 229 223 229 239 238 229 215 215 210 203 205 212 212 213 215 216 215 212 212 211 211 214
267 263 257 256 252 251 251 247 242 242 241 234 233 230 225 224 229 230 231 230 228 225 222 221 231 234 225 213 200 199 210 207 219 215 216 219 215 213 214 215 214 215 217
268 261 258 253 253 251 253 250 241 243 243 241 237 229 229 235 238 233 235 227 221 219 217 221 223 231 218 202 205 196 210 215 230 205 201 219 215 218 218 217 218 222 224
281 267 259 254 255 259 274 273 264 244 245 246 242 235 235 236 245 247 250 245 234 221 217 222 228 227 222 213 206 199 198 202 231 197 189 224 206 223 232 226 223 226 228
287 281 265 255 255 264 273 272 272 257 245 248 248 240 238 242 245 240 248 251 246 244 235 227 227 232 218 205 198 205 208 218 232 198 188 230 209 231 238 235 227 224 230
280 280 281 271 266 273 276 271 268 257 244 246 248 243 239 237 239 240 234 235 234 237 239 236 231 237 227 210 204 209 205 213 242 207 190 234 219 232 243 233 229 227 230
282 279 280 277 276 288 292 282 272 249 247 252 253 249 247 237 255 254 238 234 238 240 243 245 245 246 236 224 206 184 186 192 224 225 192 202 217 240 237 234 235 229 230
280 286 290 286 279 282 295 296 283 254 249 253 254 249 251 253 255 256 238 226 231 237 228 237 247 254 233 204 202 203 199 201 210 224 196 180 204 205 249 235 224 228 235